TimeEST,TemperatureF,Dew PointF,Humidity,Sea Level PressureIn,VisibilityMPH,Wind Direction,Wind SpeedMPH,Gust SpeedMPH,PrecipitationIn,Events,Conditions,WindDirDegrees,DateUTC
12:54 AM,16.0,10.9,81,30.22,7.0,NE,3.5,-,0.01,Snow,Light Snow,40,2013-01-18 05:54:00
1:50 AM,15.8,12.2,86,30.21,2.5,North,3.5,-,0.00,Snow,Light Snow,360,2013-01-18 06:50:00
1:54 AM,16.0,12.0,84,30.25,2.5,North,3.5,-,0.00,Snow,Light Snow,10,2013-01-18 06:54:00
2:28 AM,14.0,10.4,86,30.23,5.0,NNW,3.5,-,0.00,Snow,Light Snow,340,2013-01-18 07:28:00
2:54 AM,15.1,12.0,88,30.29,5.0,NW,5.8,-,0.00,Snow,Light Snow,310,2013-01-18 07:54:00
3:12 AM,15.8,12.2,86,30.26,1.5,NW,4.6,-,0.00,Snow,Light Snow,310,2013-01-18 08:12:00
3:45 AM,15.8,12.2,86,30.27,3.0,NW,3.5,-,0.00,Snow,Light Snow,310,2013-01-18 08:45:00
3:54 AM,15.1,10.9,84,30.31,8.0,Calm,Calm,-,0.00,Snow,Light Snow,0,2013-01-18 08:54:00
4:31 AM,15.8,12.2,86,30.28,10.0,SW,5.8,-,0.00,Snow,Light Snow,220,2013-01-18 09:31:00
4:54 AM,16.0,12.0,84,30.33,5.0,WSW,4.6,-,0.00,Snow,Light Snow,240,2013-01-18 09:54:00
5:54 AM,16.0,9.0,74,30.37,10.0,West,12.7,20.7,0.00,Snow,Light Snow,270,2013-01-18 10:54:00
6:54 AM,15.1,8.1,74,30.40,10.0,West,11.5,19.6,0.00,Snow,Light Snow,270,2013-01-18 11:54:00
7:54 AM,15.1,6.1,68,30.42,10.0,West,8.1,-,0.00,,Scattered Clouds,280,2013-01-18 12:54:00
8:54 AM,16.0,8.1,71,30.44,10.0,West,12.7,-,N/A,,Scattered Clouds,260,2013-01-18 13:54:00
9:54 AM,19.0,8.1,62,30.45,10.0,West,11.5,-,N/A,,Scattered Clouds,280,2013-01-18 14:54:00
10:54 AM,19.9,8.1,60,30.45,10.0,West,13.8,-,N/A,,Scattered Clouds,260,2013-01-18 15:54:00
11:54 AM,21.0,7.0,55,30.42,10.0,West,10.4,-,N/A,,Mostly Cloudy,270,2013-01-18 16:54:00
12:54 PM,21.0,9.0,60,30.40,10.0,WSW,9.2,-,N/A,,Mostly Cloudy,240,2013-01-18 17:54:00
1:54 PM,23.0,10.9,60,30.37,10.0,WSW,17.3,25.3,N/A,,Mostly Cloudy,240,2013-01-18 18:54:00
2:54 PM,24.1,12.9,62,30.34,10.0,SW,17.3,26.5,N/A,,Mostly Cloudy,230,2013-01-18 19:54:00
3:54 PM,26.1,15.1,63,30.30,10.0,SW,15.0,26.5,N/A,,Mostly Cloudy,230,2013-01-18 20:54:00
4:23 PM,24.8,15.8,69,30.25,10.0,SSW,15.0,-,N/A,,Overcast,210,2013-01-18 21:23:00
4:54 PM,26.1,15.1,63,30.27,10.0,South,16.1,-,N/A,,Mostly Cloudy,190,2013-01-18 21:54:00
5:54 PM,25.0,12.0,58,30.26,10.0,South,11.5,-,N/A,,Mostly Cloudy,190,2013-01-18 22:54:00
6:54 PM,25.0,12.0,58,30.22,10.0,South,11.5,-,N/A,,Mostly Cloudy,180,2013-01-18 23:54:00
7:54 PM,27.0,12.9,56,30.19,10.0,SSW,16.1,24.2,N/A,,Scattered Clouds,200,2013-01-19 00:54:00
8:54 PM,28.0,12.9,53,30.13,10.0,SSW,19.6,28.8,N/A,,Mostly Cloudy,200,2013-01-19 01:54:00
9:54 PM,30.0,15.1,54,30.09,10.0,SSW,24.2,-,N/A,,Mostly Cloudy,210,2013-01-19 02:54:00
10:54 PM,30.9,16.0,54,30.08,10.0,SSW,21.9,26.5,N/A,,Overcast,210,2013-01-19 03:54:00
11:54 PM,33.1,16.0,50,30.03,10.0,SSW,19.6,-,N/A,,Overcast,210,2013-01-19 04:54:00